Time,TemperatureF,DewpointF,PressureIn,WindDirection,WindDirectionDegrees,WindSpeedMPH,WindSpeedGustMPH,Humidity,HourlyPrecipIn,Conditions,Clouds,dailyrainin,SoftwareType,DateUTC
2013-04-24 00:02:00,27.0,18.0,-100.00,SSE,155,0.0,1.0,71,0.00,,,-99.99,,2013-04-24 05:02:00,
2013-04-24 00:12:00,27.0,18.0,-100.00,SSE,155,0.0,1.0,71,0.00,,,-99.99,,2013-04-24 05:12:00,
2013-04-24 00:22:00,27.0,18.0,-100.00,SSE,155,0.0,1.0,71,0.00,,,-99.99,,2013-04-24 05:22:00,
2013-04-24 04:53:00,24.0,19.0,-100.00,SE,125,0.0,1.0,82,0.00,,,-99.99,,2013-04-24 09:53:00,
2013-04-24 05:02:00,24.0,19.0,-100.00,SE,125,0.0,1.0,82,0.00,,,-99.99,,2013-04-24 10:02:00,
2013-04-24 05:12:00,24.0,19.0,-100.00,SE,125,0.0,1.0,82,0.00,,,-99.99,,2013-04-24 10:12:00,
2013-04-24 05:22:00,24.0,19.0,-100.00,SE,125,0.0,1.0,82,0.00,,,-99.99,,2013-04-24 10:22:00,
2013-04-24 06:52:00,22.0,18.0,-100.00,ENE,75,0.0,1.0,82,0.00,,,-99.99,,2013-04-24 11:52:00,
2013-04-24 07:02:00,22.0,18.0,-100.00,ENE,75,0.0,1.0,82,0.00,,,-99.99,,2013-04-24 12:02:00,
2013-04-24 07:11:00,22.0,18.0,-100.00,ENE,75,0.0,1.0,82,0.00,,,-99.99,,2013-04-24 12:11:00,
2013-04-24 07:22:00,22.0,18.0,-100.00,ENE,75,0.0,1.0,82,0.00,,,-99.99,,2013-04-24 12:22:00,
2013-04-24 09:52:00,41.0,12.0,-100.00,West,265,2.0,6.0,30,0.00,,,-99.99,,2013-04-24 14:52:00,
2013-04-24 10:01:00,41.0,12.0,-100.00,West,265,2.0,6.0,30,0.00,,,-99.99,,2013-04-24 15:01:00,
2013-04-24 10:11:00,41.0,12.0,-100.00,West,265,2.0,6.0,30,0.00,,,-99.99,,2013-04-24 15:11:00,
2013-04-24 10:21:00,41.0,12.0,-100.00,West,265,2.0,6.0,30,0.00,,,-99.99,,2013-04-24 15:21:00,
2013-04-24 12:52:00,47.0,3.0,-100.00,WNW,290,6.0,15.0,16,0.00,,,-99.99,,2013-04-24 17:52:00,
2013-04-24 13:02:00,47.0,3.0,-100.00,WNW,290,6.0,15.0,16,0.00,,,-99.99,,2013-04-24 18:02:00,
2013-04-24 13:12:00,47.0,3.0,-100.00,WNW,290,6.0,15.0,16,0.00,,,-99.99,,2013-04-24 18:12:00,
2013-04-24 13:22:00,47.0,3.0,-100.00,WNW,290,6.0,15.0,16,0.00,,,-99.99,,2013-04-24 18:22:00,
2013-04-24 13:52:00,47.0,5.0,-100.00,NW,305,6.0,12.0,17,0.00,,,-99.99,,2013-04-24 18:52:00,
2013-04-24 14:02:00,47.0,5.0,-100.00,NW,305,6.0,12.0,17,0.00,,,-99.99,,2013-04-24 19:02:00,
2013-04-24 14:11:00,47.0,5.0,-100.00,NW,305,6.0,12.0,17,0.00,,,-99.99,,2013-04-24 19:11:00,
2013-04-24 14:22:00,47.0,5.0,-100.00,NW,305,6.0,12.0,17,0.00,,,-99.99,,2013-04-24 19:22:00,
2013-04-24 14:52:00,51.0,8.0,-100.00,WNW,290,6.0,14.0,17,0.00,,,-99.99,,2013-04-24 19:52:00,
2013-04-24 15:02:00,51.0,8.0,-100.00,WNW,290,6.0,14.0,17,0.00,,,-99.99,,2013-04-24 20:02:00,
2013-04-24 15:11:00,51.0,8.0,-100.00,WNW,290,6.0,14.0,17,0.00,,,-99.99,,2013-04-24 20:11:00,
2013-04-24 15:22:00,51.0,8.0,-100.00,WNW,290,6.0,14.0,17,0.00,,,-99.99,,2013-04-24 20:22:00,
2013-04-24 16:52:00,50.0,7.0,-100.00,WNW,285,8.0,18.0,17,0.00,,,-99.99,,2013-04-24 21:52:00,
2013-04-24 17:03:00,50.0,7.0,-100.00,WNW,285,8.0,18.0,17,0.00,,,-99.99,,2013-04-24 22:03:00,
2013-04-24 17:12:00,50.0,7.0,-100.00,WNW,285,8.0,18.0,17,0.00,,,-99.99,,2013-04-24 22:12:00,
2013-04-24 17:22:00,50.0,7.0,-100.00,WNW,285,8.0,18.0,17,0.00,,,-99.99,,2013-04-24 22:22:00,
2013-04-24 18:52:00,48.0,8.0,-100.00,WSW,255,4.0,12.0,19,0.00,,,-99.99,,2013-04-24 23:52:00,
2013-04-24 19:02:00,48.0,8.0,-100.00,WSW,255,4.0,12.0,19,0.00,,,-99.99,,2013-04-25 00:02:00,
2013-04-24 19:12:00,48.0,8.0,-100.00,WSW,255,4.0,12.0,19,0.00,,,-99.99,,2013-04-25 00:12:00,
2013-04-24 19:22:00,48.0,8.0,-100.00,WSW,255,4.0,12.0,19,0.00,,,-99.99,,2013-04-25 00:22:00,
2013-04-24 20:52:00,42.0,15.0,-100.00,WSW,240,2.0,6.0,34,0.00,,,-99.99,,2013-04-25 01:52:00,
2013-04-24 21:02:00,42.0,15.0,-100.00,WSW,240,2.0,6.0,34,0.00,,,-99.99,,2013-04-25 02:02:00,
2013-04-24 21:11:00,42.0,15.0,-100.00,WSW,240,2.0,6.0,34,0.00,,,-99.99,,2013-04-25 02:11:00,
2013-04-24 21:22:00,42.0,15.0,-100.00,WSW,240,2.0,6.0,34,0.00,,,-99.99,,2013-04-25 02:22:00,
2013-04-24 22:02:00,38.0,20.0,-100.00,SSE,165,0.0,1.0,48,0.00,,,-99.99,,2013-04-25 03:02:00,
2013-04-24 22:11:00,38.0,20.0,-100.00,SSE,165,0.0,1.0,48,0.00,,,-99.99,,2013-04-25 03:11:00,
2013-04-24 22:22:00,38.0,20.0,-100.00,SSE,165,0.0,1.0,48,0.00,,,-99.99,,2013-04-25 03:22:00,
2013-04-24 23:52:00,40.0,26.0,-100.00,WSW,245,4.0,11.0,57,0.23,,,-99.99,,2013-04-25 04:52:00,